SAS1204 EKYT-EKCH

Flight info

Callsign SAS1204
Flight time 0h 34m
Altitude 19000
Route AAL M725 ADSEN DCT TNO
Aircraft A320/M-SDE3FGHIRWY/LB1

Departure

Time 2026-04-30 18:27
Airport Aalborg Airport (EKYT)

Arrival

Time 2026-04-30 19:02
Airport Copenhagen Kastrup Airport (EKCH)
Time Latitude Longitude Altitude Speed Heading
2026-04-30 17:58 57.08642 9.87071 19 ft 0 kts 61°
2026-04-30 18:18 57.08635 9.87047 19 ft 2 kts 57°
2026-04-30 18:18 57.08624 9.87024 21 ft 2 kts 39°
2026-04-30 18:18 57.08611 9.87006 18 ft 2 kts 16°
2026-04-30 18:19 57.08595 9.87003 21 ft 2 kts 338°
2026-04-30 18:19 57.08582 9.87014 20 ft 1 kts 318°
2026-04-30 18:19 57.08580 9.87017 21 ft 0 kts 315°
2026-04-30 18:22 57.08597 9.86988 19 ft 6 kts 315°
2026-04-30 18:22 57.08643 9.86905 18 ft 12 kts 317°
2026-04-30 18:23 57.08723 9.86775 18 ft 18 kts 320°
2026-04-30 18:23 57.08838 9.86609 18 ft 24 kts 322°
2026-04-30 18:23 57.08978 9.86408 18 ft 27 kts 322°
2026-04-30 18:23 57.09132 9.86188 18 ft 29 kts 322°
2026-04-30 18:24 57.09348 9.86012 18 ft 15 kts 80°
2026-04-30 18:24 57.09363 9.86244 18 ft 22 kts 83°
2026-04-30 18:24 57.09384 9.86557 19 ft 28 kts 84°
2026-04-30 18:25 57.09410 9.86960 18 ft 35 kts 83°
2026-04-30 18:25 57.09458 9.87682 20 ft 15 kts 71°
2026-04-30 18:25 57.09557 9.87755 19 ft 19 kts 351°
2026-04-30 18:26 57.09622 9.87252 16 ft 60 kts 264°
2026-04-30 18:26 57.09546 9.86069 20 ft 123 kts 263°
2026-04-30 18:26 57.09434 9.84241 247 ft 151 kts 263°
2026-04-30 18:27 57.09149 9.80363 1568 ft 156 kts 263°
2026-04-30 18:27 57.08995 9.78367 2200 ft 160 kts 264°
2026-04-30 18:28 57.07943 9.74650 3352 ft 179 kts 213°
2026-04-30 18:28 57.06672 9.74200 3789 ft 200 kts 171°
2026-04-30 18:28 57.04102 9.77028 4871 ft 234 kts 142°
2026-04-30 18:29 57.02790 9.78949 5505 ft 250 kts 141°
2026-04-30 18:29 56.98398 9.85238 7915 ft 278 kts 143°
2026-04-30 18:30 56.95790 9.88802 9431 ft 284 kts 143°
2026-04-30 18:30 56.91969 9.93989 10873 ft 315 kts 143°
2026-04-30 18:31 56.90161 9.96440 11349 ft 329 kts 142°
2026-04-30 18:31 56.86422 10.01498 12343 ft 337 kts 142°
2026-04-30 18:32 56.82646 10.06611 12606 ft 341 kts 142°
2026-04-30 18:32 56.80736 10.09194 13439 ft 342 kts 142°
2026-04-30 18:32 56.76860 10.14424 14874 ft 351 kts 142°
2026-04-30 18:33 56.74886 10.17078 15518 ft 355 kts 142°
2026-04-30 18:33 56.70854 10.22479 16777 ft 364 kts 142°
2026-04-30 18:33 56.68800 10.25229 17411 ft 369 kts 142°
2026-04-30 18:34 56.66721 10.28011 18055 ft 373 kts 142°
2026-04-30 18:34 56.62518 10.33630 19206 ft 382 kts 142°
2026-04-30 18:34 56.60371 10.36493 19388 ft 384 kts 142°
2026-04-30 18:35 56.58224 10.39351 19442 ft 382 kts 142°
2026-04-30 18:35 56.56086 10.42192 19447 ft 381 kts 142°
2026-04-30 18:35 56.53949 10.45027 19450 ft 381 kts 142°
2026-04-30 18:36 56.49676 10.50681 19453 ft 380 kts 142°
2026-04-30 18:36 56.47536 10.53501 19453 ft 380 kts 142°
2026-04-30 18:36 56.43256 10.59134 19463 ft 380 kts 142°
2026-04-30 18:37 56.41117 10.61943 19463 ft 380 kts 142°
2026-04-30 18:37 56.38974 10.64750 19468 ft 381 kts 142°
2026-04-30 18:37 56.36828 10.67555 19470 ft 381 kts 142°
2026-04-30 18:37 56.34685 10.70362 19471 ft 381 kts 142°
2026-04-30 18:38 56.32536 10.73180 19475 ft 381 kts 142°
2026-04-30 18:38 56.31117 10.75037 19477 ft 381 kts 142°
2026-04-30 18:38 56.28969 10.77844 19479 ft 382 kts 142°
2026-04-30 18:38 56.26819 10.80647 19478 ft 382 kts 142°
2026-04-30 18:39 56.24666 10.83445 19479 ft 382 kts 142°
2026-04-30 18:39 56.22513 10.86238 19480 ft 382 kts 142°
2026-04-30 18:39 56.20363 10.89027 19476 ft 382 kts 142°
2026-04-30 18:39 56.18206 10.91817 19474 ft 382 kts 142°
2026-04-30 18:40 56.16051 10.94600 19475 ft 382 kts 142°
2026-04-30 18:40 56.13894 10.97380 19469 ft 382 kts 142°
2026-04-30 18:40 56.11738 11.00158 19467 ft 382 kts 142°
2026-04-30 18:40 56.09584 11.02930 19471 ft 382 kts 142°
2026-04-30 18:41 56.07442 11.05683 19350 ft 374 kts 142°
2026-04-30 18:41 56.05353 11.08362 19099 ft 366 kts 142°
2026-04-30 18:41 56.03295 11.10999 18834 ft 360 kts 142°
2026-04-30 18:41 56.01277 11.13584 18535 ft 354 kts 141°
2026-04-30 18:42 55.99294 11.16118 18214 ft 348 kts 141°
2026-04-30 18:42 55.95389 11.21103 17583 ft 342 kts 141°
2026-04-30 18:42 55.93459 11.23564 17276 ft 340 kts 141°
2026-04-30 18:45 55.77057 11.49198 14328 ft 296 kts 101°
2026-04-30 18:45 55.76716 11.52772 14026 ft 293 kts 95°
2026-04-30 18:45 55.76441 11.56349 13697 ft 292 kts 95°
2026-04-30 18:46 55.76159 11.59909 13360 ft 291 kts 95°
2026-04-30 18:46 55.75875 11.63460 13022 ft 290 kts 95°
2026-04-30 18:46 55.75592 11.66989 12690 ft 289 kts 95°
2026-04-30 18:46 55.75307 11.70513 12360 ft 288 kts 95°
2026-04-30 18:47 55.75020 11.74024 12031 ft 287 kts 95°
2026-04-30 18:47 55.74734 11.77525 11712 ft 286 kts 96°
2026-04-30 18:47 55.74449 11.81025 11392 ft 286 kts 96°
2026-04-30 18:47 55.74166 11.84521 11074 ft 285 kts 96°
2026-04-30 18:48 55.73883 11.87999 10713 ft 285 kts 96°
2026-04-30 18:48 55.73600 11.91427 10371 ft 284 kts 96°
2026-04-30 18:48 55.73312 11.94936 10007 ft 283 kts 96°
2026-04-30 18:48 55.73030 11.98384 9639 ft 282 kts 96°
2026-04-30 18:49 55.72751 12.01773 9277 ft 281 kts 96°
2026-04-30 18:49 55.72462 12.05235 8919 ft 280 kts 96°
2026-04-30 18:49 55.72177 12.08616 8566 ft 279 kts 96°
2026-04-30 18:49 55.71891 12.11995 8427 ft 274 kts 96°
2026-04-30 18:50 55.71609 12.15349 8436 ft 275 kts 96°
2026-04-30 18:50 55.71327 12.18706 8436 ft 275 kts 96°
2026-04-30 18:50 55.70869 12.22008 8426 ft 278 kts 109°
2026-04-30 18:50 55.69908 12.25000 8171 ft 281 kts 126°
2026-04-30 18:51 55.68508 12.27412 7875 ft 282 kts 137°
2026-04-30 18:51 55.67006 12.29640 7517 ft 281 kts 137°
2026-04-30 18:51 55.65515 12.31883 7155 ft 281 kts 136°
2026-04-30 18:51 55.64025 12.34137 6794 ft 281 kts 136°
2026-04-30 18:52 55.62505 12.36325 6405 ft 283 kts 145°
2026-04-30 18:52 55.60662 12.37542 6023 ft 287 kts 171°
2026-04-30 18:52 55.58677 12.37241 5646 ft 290 kts 198°
2026-04-30 18:52 55.56966 12.35496 5286 ft 289 kts 221°
2026-04-30 18:53 55.55453 12.33147 4900 ft 288 kts 221°
2026-04-30 18:53 55.53972 12.30868 4510 ft 277 kts 221°
2026-04-30 18:53 55.52541 12.28680 4136 ft 267 kts 221°
2026-04-30 18:53 55.51173 12.26600 3853 ft 252 kts 221°
2026-04-30 18:54 55.49880 12.24624 3604 ft 241 kts 222°
2026-04-30 18:54 55.48618 12.22701 3354 ft 239 kts 222°
2026-04-30 18:54 55.47317 12.20910 3109 ft 237 kts 208°
2026-04-30 18:54 55.45724 12.20321 3004 ft 238 kts 174°
2026-04-30 18:55 55.44189 12.21332 3007 ft 238 kts 140°
2026-04-30 18:55 55.42023 12.25697 3017 ft 237 kts 126°
2026-04-30 18:55 55.41030 12.27961 3012 ft 227 kts 125°
2026-04-30 18:56 55.40051 12.32813 3017 ft 211 kts 71°
2026-04-30 18:56 55.40787 12.34945 3015 ft 204 kts 36°
2026-04-30 18:56 55.42038 12.36068 3008 ft 202 kts 18°
2026-04-30 18:57 55.44648 12.37914 3007 ft 205 kts 38°
2026-04-30 18:57 55.45713 12.39594 3009 ft 206 kts 39°
2026-04-30 18:57 55.46792 12.41253 3016 ft 206 kts 38°
2026-04-30 18:58 55.48943 12.44548 2723 ft 202 kts 38°
2026-04-30 18:58 55.49989 12.46153 2479 ft 194 kts 37°
2026-04-30 18:58 55.50974 12.47666 2231 ft 184 kts 37°
2026-04-30 18:59 55.52872 12.50579 1734 ft 177 kts 37°
2026-04-30 19:00 55.55445 12.54542 1075 ft 142 kts 36°
2026-04-30 19:00 55.56168 12.55653 866 ft 135 kts 37°
2026-04-30 19:00 55.57559 12.57790 480 ft 131 kts 39°
2026-04-30 19:01 55.58917 12.59872 162 ft 128 kts 39°
2026-04-30 19:01 55.59587 12.60917 35 ft 125 kts 40°
2026-04-30 19:02 55.60466 12.62255 26 ft 38 kts 32°
2026-04-30 19:02 55.60848 12.62484 24 ft 25 kts 41°
2026-04-30 19:03 55.61005 12.62730 24 ft 16 kts 40°
2026-04-30 19:03 55.61204 12.63036 24 ft 20 kts 41°
2026-04-30 19:04 55.61379 12.63308 24 ft 14 kts 41°
2026-04-30 19:04 55.61559 12.63586 24 ft 15 kts 41°
2026-04-30 19:05 55.61738 12.63863 24 ft 21 kts 41°
2026-04-30 19:05 55.61964 12.64147 24 ft 19 kts 25°
2026-04-30 19:06 55.62150 12.64302 23 ft 15 kts 25°
2026-04-30 19:06 55.62191 12.64336 22 ft 0 kts 25°
2026-04-30 19:06 55.62194 12.64338 22 ft 3 kts 25°
2026-04-30 19:07 55.62377 12.64441 24 ft 22 kts 14°
2026-04-30 19:07 55.62504 12.64462 28 ft 18 kts 319°
2026-04-30 19:08 55.62654 12.64304 25 ft 13 kts 22°
2026-04-30 19:08 55.62715 12.64442 24 ft 3 kts 99°
2026-04-30 19:08 55.62713 12.64459 24 ft 0 kts 101°